[[{"header":{"parameterUnit":"m.s-1","parameterCategory":1,"la1":30.2991,"la2":30.254,"lo1":-89.0895,"lo2":-89.0444,"dy":0.0017,"dx":0.0017,"nx":28,"ny":28,"refTime":"2025-08-02T21:00:00:Z","depth":0,"parameterNumber":2,"parameterNumberName":"U-component_of_WINDS"},"data":[0,0,0,0,0,0,0,0,0,0,0,0,0,0,0,0,0,0,0,0,0,0,0,0,0,0,0,0,0,0,0,0,0,0,0,0,0,0,0,0,0,0,0,0,0,0,0,0,0,0,0,0,0,0,0,0,0,0,-0.3864,-0.3865,0,-0.3915,-0.3916,-0.3917,-0.3886,-0.3884,-0.3883,-0.3881,-0.3934,-0.3937,-0.394,0,0,0,0,0,0,0,0,0,0,0,0,0,-0.3739,-0.3741,-0.3864,-0.3865,-0.3865,-0.3915,-0.3916,-0.3917,-0.3886,-0.3884,-0.3882,-0.3881,-0.3933,-0.3937,-0.394,0,0,0,0,0,0,0,0,0,0,0,0,0,-0.3792,-0.3742,-0.3864,-0.3856,-0.3856,-0.3915,-0.3916,-0.3917,-0.3886,-0.3884,-0.3882,-0.388,-0.3932,-0.3936,-0.3941,-0.4011,0,0,-0.3953,-0.3955,0,0,0,0,0,0,0,0,-0.3789,-0.3797,-0.3857,-0.3857,-0.3857,-0.3892,-0.3891,-0.3948,-0.3887,-0.3875,-0.3881,-0.3879,-0.3922,-0.3927,-0.3941,-0.4013,-0.4016,-0.3954,-0.3956,-0.3958,-0.3959,0,0,0,0,0,0,0,-0.3785,-0.3794,-0.3884,-0.3857,-0.3857,-0.385,-0.3855,-0.3902,-0.391,-0.3876,-0.3873,-0.388,-0.3922,-0.3938,-0.3942,-0.4016,-0.3954,-0.3957,-0.396,-0.3962,-0.4147,-0.4149,0,0,0,0,0,0,-0.3782,-0.3791,-0.3883,-0.3886,-0.3817,-0.3854,-0.3859,-0.3883,-0.391,-0.3912,-0.3882,-0.3878,-0.3931,-0.3938,-0.3944,-0.4027,-0.3958,-0.3962,-0.3964,-0.4144,-0.4147,-0.415,0,0,0,0,0,0,-0.378,-0.3791,-0.3881,-0.3838,-0.3849,-0.3858,-0.3885,-0.3885,-0.3901,-0.3914,-0.3916,-0.3897,-0.393,-0.3938,-0.3994,-0.4029,-0.3964,-0.3968,-0.4141,-0.4145,-0.4149,-0.4195,0,0,0,0,0,0,-0.3776,-0.379,-0.3817,-0.3839,-0.3851,-0.393,-0.3887,-0.3888,-0.3908,-0.3904,-0.3928,-0.393,-0.3929,-0.3988,-0.3998,-0.4033,-0.3971,-0.4138,-0.4143,-0.4147,-0.419,-0.42,-0.4208,0,0,0,0,0,-0.3772,-0.3829,-0.3819,-0.383,-0.3886,-0.3932,-0.3939,-0.3936,-0.3911,-0.3938,-0.3946,-0.393,-0.4023,-0.3994,-0.4005,-0.4042,-0.4136,-0.4142,-0.4147,-0.4187,-0.4198,-0.4207,0,0,0,0,0,0,-0.3812,-0.3832,-0.3821,-0.3886,-0.3908,-0.3927,-0.3961,-0.3949,-0.3978,-0.3973,-0.3968,-0.3974,-0.4032,-0.4042,-0.4009,-0.4111,-0.4076,-0.4084,-0.4102,-0.4113,-0.4121,-0.4118,-0.3974,0,0,0,0,0,-0.3828,-0.3865,-0.388,-0.3936,-0.3947,-0.3952,-0.3973,-0.3968,-0.399,-0.3999,-0.4012,-0.4034,-0.4068,-0.4091,-0.4123,-0.4191,-0.4196,-0.4222,-0.4231,-0.4238,-0.4245,-0.428,-0.4292,-0.4168,-0.4168,-0.4167,0,0,-0.3863,-0.3878,-0.3901,-0.3944,-0.3961,-0.3998,-0.396,-0.4002,-0.403,-0.4006,-0.4059,-0.4069,-0.4093,-0.4155,-0.4183,-0.4166,-0.428,-0.4245,-0.425,-0.4254,-0.4287,-0.4299,-0.4309,-0.4171,-0.4171,-0.417,0,0,-0.3944,-0.396,-0.4008,-0.4024,-0.4049,-0.4051,-0.4063,-0.4083,-0.4089,-0.4142,-0.4124,-0.4157,-0.4216,-0.4234,-0.425,-0.4336,-0.4322,-0.4347,-0.4392,-0.4427,-0.4437,-0.4445,-0.4475,-0.4486,-0.4354,-0.4354,-0.4354,0,-0.3984,-0.404,-0.4034,-0.4077,-0.4096,-0.4075,-0.4123,-0.4139,-0.4173,-0.4187,-0.4167,-0.4239,-0.4254,-0.4319,-0.434,-0.4355,-0.4367,-0.4344,-0.4436,-0.4444,-0.4452,-0.4481,-0.4492,-0.4357,-0.4356,-0.4356,-0.4356,0,-0.4087,-0.4126,-0.4162,-0.4194,-0.4217,-0.4262,-0.4263,-0.4287,-0.428,-0.4284,-0.4338,-0.4354,-0.4389,-0.4404,-0.4398,-0.4468,-0.4456,-0.4436,-0.4401,-0.4467,-0.4494,-0.4505,-0.4361,-0.436,-0.4359,-0.4358,0,0,-0.4198,-0.4224,-0.4238,-0.4251,-0.4276,-0.4306,-0.4349,-0.4382,-0.4402,-0.4426,-0.4462,-0.4511,-0.4492,-0.4511,-0.4507,-0.4537,-0.4603,-0.4513,-0.4513,-0.4529,-0.468,-0.4695,-0.4708,-0.4593,-0.4595,-0.4596,-0.4678,0,-0.4281,-0.4357,-0.4352,-0.4423,-0.4458,-0.4438,-0.4475,-0.4494,-0.4499,-0.4529,-0.4534,-0.4569,-0.4542,-0.4553,-0.4582,-0.4589,-0.4633,-0.4583,-0.4626,-0.4628,-0.4621,-0.4722,-0.4739,-0.4815,-0.4688,-0.469,-0.4691,0,-0.4388,-0.4414,-0.4489,-0.4506,-0.4521,-0.4555,-0.4584,-0.4613,-0.4633,-0.4635,-0.4655,-0.4644,-0.4687,-0.465,-0.4709,-0.4675,-0.4692,-0.4698,-0.4701,-0.4705,-0.4664,-0.4729,-0.4839,-0.485,-0.4708,-0.4706,-0.4705,0,-0.4461,-0.4514,-0.4566,-0.4578,-0.46,-0.4624,-0.4634,-0.4652,-0.4672,-0.4697,-0.4709,-0.474,-0.4756,-0.4779,-0.4777,-0.475,-0.4837,-0.48,-0.4839,-0.4839,-0.4859,-0.4857,-0.4973,-0.4869,-0.4869,-0.4869,-0.4869,0,-0.4554,-0.4601,-0.4598,-0.463,-0.4681,-0.4674,-0.4725,-0.4732,-0.4748,-0.478,-0.4764,-0.4794,-0.4789,-0.4819,-0.4818,-0.4866,-0.4874,-0.4876,-0.4875,-0.4877,-0.4877,-0.4889,-0.4884,-0.4872,-0.4871,-0.4871,-0.487,0,-0.4644,-0.4645,-0.4699,-0.4714,-0.4719,-0.4756,-0.4769,-0.4798,-0.4801,-0.4842,-0.4851,-0.4855,-0.489,-0.4889,-0.4929,-0.4928,-0.4987,-0.498,-0.498,-0.4979,-0.5018,-0.5014,-0.5145,-0.5162,-0.5047,-0.5048,-0.5049,0,-0.4704,-0.4739,-0.4758,-0.4778,-0.4789,-0.4822,-0.4842,-0.4836,-0.4857,-0.4881,-0.4907,-0.494,-0.4966,-0.5022,-0.5029,-0.5059,-0.5052,-0.5096,-0.5057,-0.5058,-0.5053,-0.5051,-0.5054,-0.5104,-0.5105,-0.5106,-0.5107,0,-0.481,-0.4808,-0.4837,-0.4865,-0.4889,-0.4911,-0.4932,-0.4949,-0.4945,-0.4969,-0.5004,-0.5024,-0.5064,-0.5096,-0.5125,-0.5134,-0.512,-0.5119,-0.513,-0.5133,-0.5132,-0.5132,-0.5001,-0.5116,-0.5116,-0.5115,-0.5114,-0.5114,-0.4887,-0.4917,-0.4934,-0.4966,-0.498,-0.4999,-0.5027,-0.5033,-0.5062,-0.5093,-0.5088,-0.5126,-0.5144,-0.518,-0.5192,-0.5222,-0.5206,-0.5222,-0.5226,-0.523,-0.5234,-0.5126,-0.5227,-0.5227,-0.5226,-0.5226,-0.5226,0,-0.4992,-0.5002,-0.5031,-0.506,-0.5085,-0.5068,-0.5089,-0.5111,-0.5145,-0.5162,-0.5188,-0.5227,-0.5258,-0.5266,-0.5295,-0.5318,-0.5312,-0.5326,-0.5324,-0.5326,-0.5246,-0.5234,-0.533,-0.533,-0.533,-0.533,-0.533,-0.533,-0.505,-0.5099,-0.5098,-0.5153,-0.5163,-0.52,-0.5213,-0.523,-0.5244,-0.5288,-0.5314,-0.5318,-0.5332,-0.5362,-0.5389,-0.539,-0.5402,-0.5419,-0.5417,-0.5343,-0.5332,-0.5322,-0.5311,-0.5421,-0.5421,-0.5495,-0.5496,-0.5496]},{"header":{"parameterUnit":"m.s-1","parameterCategory":1,"la1":30.2991,"la2":30.254,"lo1":-89.0895,"lo2":-89.0444,"dy":0.0017,"dx":0.0017,"nx":28,"ny":28,"refTime":"2025-08-02T21:00:00:Z","depth":0,"parameterNumber":3,"parameterNumberName":"V-component_of_WINDS"},"data":[0,0,0,0,0,0,0,0,0,0,0,0,0,0,0,0,0,0,0,0,0,0,0,0,0,0,0,0,0,0,0,0,0,0,0,0,0,0,0,0,0,0,0,0,0,0,0,0,0,0,0,0,0,0,0,0,0,0,-1.1697,-1.1697,0,-1.1703,-1.1704,-1.1704,-1.1699,-1.1699,-1.1699,-1.1699,-1.1705,-1.1705,-1.1705,0,0,0,0,0,0,0,0,0,0,0,0,0,-1.1679,-1.1679,-1.1697,-1.1697,-1.1697,-1.1703,-1.1704,-1.1704,-1.1699,-1.1699,-1.1699,-1.1698,-1.1705,-1.1705,-1.1705,0,0,0,0,0,0,0,0,0,0,0,0,0,-1.1686,-1.1679,-1.1697,-1.1695,-1.1695,-1.1703,-1.1704,-1.1704,-1.1699,-1.1699,-1.1699,-1.1698,-1.1704,-1.1705,-1.1706,-1.1715,0,0,-1.1707,-1.1707,0,0,0,0,0,0,0,0,-1.1686,-1.1687,-1.1696,-1.1696,-1.1696,-1.17,-1.1699,-1.1707,-1.1699,-1.1698,-1.1698,-1.1698,-1.1703,-1.1704,-1.1706,-1.1715,-1.1716,-1.1707,-1.1708,-1.1708,-1.1708,0,0,0,0,0,0,0,-1.1685,-1.1686,-1.1699,-1.1696,-1.1696,-1.1694,-1.1695,-1.1701,-1.1702,-1.1698,-1.1698,-1.1698,-1.1703,-1.1705,-1.1706,-1.1716,-1.1707,-1.1708,-1.1708,-1.1708,-1.1731,-1.1732,0,0,0,0,0,0,-1.1685,-1.1686,-1.1699,-1.17,-1.169,-1.1695,-1.1695,-1.1699,-1.1702,-1.1702,-1.1699,-1.1698,-1.1705,-1.1705,-1.1706,-1.1717,-1.1708,-1.1708,-1.1709,-1.1731,-1.1731,-1.1732,0,0,0,0,0,0,-1.1684,-1.1686,-1.1699,-1.1693,-1.1694,-1.1695,-1.1699,-1.1699,-1.1701,-1.1703,-1.1703,-1.1701,-1.1704,-1.1706,-1.1713,-1.1717,-1.1709,-1.1709,-1.1731,-1.1731,-1.1732,-1.1738,0,0,0,0,0,0,-1.1684,-1.1686,-1.169,-1.1693,-1.1695,-1.1706,-1.17,-1.17,-1.1702,-1.1702,-1.1705,-1.1705,-1.1704,-1.1712,-1.1713,-1.1717,-1.1709,-1.173,-1.1731,-1.1731,-1.1737,-1.1738,-1.1739,0,0,0,0,0,-1.1683,-1.1692,-1.169,-1.1692,-1.17,-1.1706,-1.1707,-1.1706,-1.1703,-1.1706,-1.1707,-1.1705,-1.1716,-1.1713,-1.1714,-1.1718,-1.173,-1.1731,-1.1731,-1.1737,-1.1738,-1.1739,0,0,0,0,0,0,-1.169,-1.1692,-1.1691,-1.17,-1.1703,-1.1705,-1.171,-1.1708,-1.1712,-1.1711,-1.171,-1.171,-1.1718,-1.1719,-1.1715,-1.1727,-1.1722,-1.1723,-1.1726,-1.1727,-1.1728,-1.1728,-1.171,0,0,0,0,0,-1.1692,-1.1697,-1.1699,-1.1707,-1.1709,-1.1709,-1.1712,-1.1711,-1.1713,-1.1715,-1.1716,-1.1718,-1.1722,-1.1725,-1.1729,-1.1737,-1.1737,-1.1741,-1.1742,-1.1743,-1.1744,-1.1747,-1.1748,-1.1734,-1.1734,-1.1734,0,0,-1.1697,-1.1699,-1.1703,-1.1708,-1.171,-1.1715,-1.171,-1.1716,-1.1719,-1.1715,-1.1722,-1.1723,-1.1725,-1.1733,-1.1736,-1.1734,-1.1748,-1.1744,-1.1744,-1.1745,-1.1748,-1.1749,-1.175,-1.1734,-1.1734,-1.1734,0,0,-1.1709,-1.1711,-1.1718,-1.172,-1.1723,-1.1723,-1.1724,-1.1727,-1.1727,-1.1733,-1.1731,-1.1734,-1.1741,-1.1743,-1.1745,-1.1755,-1.1753,-1.1757,-1.1762,-1.1765,-1.1767,-1.1768,-1.1771,-1.1772,-1.1757,-1.1757,-1.1757,0,-1.1715,-1.1722,-1.1722,-1.1727,-1.1729,-1.1726,-1.1732,-1.1734,-1.1738,-1.1739,-1.1736,-1.1744,-1.1746,-1.1753,-1.1756,-1.1758,-1.1759,-1.1756,-1.1767,-1.1768,-1.1768,-1.1771,-1.1773,-1.1758,-1.1758,-1.1758,-1.1758,0,-1.1729,-1.1734,-1.1739,-1.1743,-1.1745,-1.1751,-1.175,-1.1753,-1.1752,-1.1752,-1.1758,-1.1759,-1.1763,-1.1764,-1.1763,-1.1771,-1.1769,-1.1767,-1.1762,-1.177,-1.1773,-1.1774,-1.1758,-1.1758,-1.1758,-1.1758,0,0,-1.1746,-1.1748,-1.175,-1.175,-1.1753,-1.1756,-1.1761,-1.1765,-1.1767,-1.1769,-1.1773,-1.1778,-1.1776,-1.1777,-1.1776,-1.1779,-1.1786,-1.1776,-1.1776,-1.1777,-1.1794,-1.1796,-1.1797,-1.1785,-1.1785,-1.1785,-1.1793,0,-1.1757,-1.1766,-1.1765,-1.1773,-1.1777,-1.1773,-1.1778,-1.1779,-1.1779,-1.1782,-1.1782,-1.1785,-1.1782,-1.1783,-1.1785,-1.1785,-1.179,-1.1785,-1.1788,-1.1788,-1.1787,-1.1799,-1.1801,-1.1808,-1.1795,-1.1795,-1.1795,0,-1.1771,-1.1774,-1.1783,-1.1783,-1.1785,-1.1789,-1.1791,-1.1794,-1.1795,-1.1795,-1.1796,-1.1794,-1.1798,-1.1794,-1.1799,-1.1795,-1.1797,-1.1796,-1.1797,-1.1797,-1.1792,-1.1798,-1.1811,-1.1812,-1.1797,-1.1797,-1.1796,0,-1.1781,-1.1787,-1.1793,-1.1794,-1.1795,-1.1797,-1.1798,-1.1799,-1.18,-1.1802,-1.1803,-1.1806,-1.1807,-1.1808,-1.1807,-1.1803,-1.1812,-1.1807,-1.1811,-1.1811,-1.1813,-1.1812,-1.1825,-1.1814,-1.1814,-1.1814,-1.1814,0,-1.1794,-1.1799,-1.1797,-1.1801,-1.1806,-1.1804,-1.1809,-1.1809,-1.181,-1.1813,-1.181,-1.1812,-1.181,-1.1812,-1.1811,-1.1815,-1.1816,-1.1815,-1.1815,-1.1815,-1.1815,-1.1816,-1.1815,-1.1814,-1.1814,-1.1814,-1.1814,0,-1.1806,-1.1805,-1.1811,-1.1811,-1.1811,-1.1815,-1.1815,-1.1817,-1.1817,-1.182,-1.1821,-1.182,-1.1822,-1.1821,-1.1823,-1.1822,-1.1827,-1.1826,-1.1827,-1.1826,-1.183,-1.1829,-1.1843,-1.1844,-1.1833,-1.1833,-1.1833,0,-1.1814,-1.1818,-1.1818,-1.182,-1.182,-1.1823,-1.1824,-1.1822,-1.1824,-1.1825,-1.1827,-1.1829,-1.1831,-1.1835,-1.1834,-1.1835,-1.1834,-1.1838,-1.1834,-1.1834,-1.1833,-1.1833,-1.1833,-1.1839,-1.1839,-1.184,-1.184,0,-1.1827,-1.1826,-1.1829,-1.1831,-1.1832,-1.1834,-1.1835,-1.1836,-1.1834,-1.1836,-1.1838,-1.1839,-1.1841,-1.1843,-1.1844,-1.1844,-1.1841,-1.1841,-1.1842,-1.1842,-1.1842,-1.1841,-1.1828,-1.1841,-1.1841,-1.1841,-1.184,-1.184,-1.1837,-1.184,-1.184,-1.1843,-1.1843,-1.1844,-1.1846,-1.1845,-1.1847,-1.1849,-1.1847,-1.185,-1.185,-1.1851,-1.1851,-1.1852,-1.185,-1.1852,-1.1852,-1.1852,-1.1852,-1.1842,-1.1853,-1.1852,-1.1852,-1.1852,-1.1852,0,-1.185,-1.185,-1.1852,-1.1853,-1.1855,-1.1852,-1.1853,-1.1854,-1.1856,-1.1856,-1.1858,-1.186,-1.1861,-1.186,-1.1861,-1.1862,-1.1861,-1.1863,-1.1862,-1.1862,-1.1854,-1.1853,-1.1864,-1.1864,-1.1864,-1.1864,-1.1864,-1.1864,-1.1857,-1.1861,-1.186,-1.1864,-1.1864,-1.1866,-1.1866,-1.1867,-1.1867,-1.1869,-1.187,-1.1869,-1.1869,-1.1869,-1.187,-1.187,-1.187,-1.1872,-1.1871,-1.1864,-1.1863,-1.1862,-1.1861,-1.1872,-1.1872,-1.1878,-1.1879,-1.1879]}]]